Location: Unspecified
(33.7438°N, 118.3804°W)
Time: 01:27:08
(UTC+00:00)

Daily predictions for brighter satellites

Satellite Brightness Start Highest point End
(mag) Time Altitude Azimuth Time Altitude Azimuth Time Altitude Azimuth
Cosmos 2082 Rocket 3.2 01:28:23 10° N 01:32:59 25° ENE 01:37:32 10° ESE
GOES 2 Rocket 3.9 01:34:51 10° WSW 01:38:48 40° S 01:42:54 10° ESE
Cosmos 2341 Rocket 4.1 01:32:40 10° N 01:39:04 74° E 01:45:26 10° SSE
Cosmos 1975 Rocket 3.2 01:35:43 10° S 01:40:02 80° W 01:44:24 10° N
AQUARIUS 4.4 01:38:02 10° S 01:42:31 78° W 01:47:01 10° NNW
Cosmos 1954 Rocket 4.0 01:38:58 10° SSW 01:44:17 83° ESE 01:49:37 10° NNE
ISS -3.2 01:41:39 10° SSW 01:44:50 43° SE 01:47:55 11° ENE
Cosmos 1867 4.3 01:39:58 10° NW 01:45:21 60° WSW 01:50:40 10° SSE
Cosmos 2278 Rocket 3.2 01:40:08 10° SW 01:45:33 48° WNW 01:51:01 10° N
Landsat 5 4.4 01:42:27 10° NE 01:46:01 29° E 01:49:40 10° SSE
ATLAS 5 CENTAUR R/B 1.2 01:45:32 10° SSW 01:49:11 64° ESE 01:53:06 10° NE
Meteor 2-10 Rocket 3.9 01:46:25 10° N 01:51:52 47° ENE 01:57:05 10° SSE
CENTAUR R/B 4.1 01:52:25 10° WSW 01:57:18 28° NW 02:02:58 10° NNE
CZ-2C R/B 2.9 01:53:31 10° N 01:59:00 79° WNW 02:04:34 10° SSW
Cosmos 2369 Rocket 3.6 01:56:11 10° SE 01:59:39 17° E 02:01:44 14° ENE
COSMO-SKYMED 1 2.6 01:55:29 10° NNE 01:59:51 89° E 02:04:11 10° SSW
Cosmos 1833 Rocket 2.9 01:55:37 10° NNW 02:01:16 78° WSW 02:06:52 10° SSE
Cosmos 1025 Rocket 3.6 01:58:46 10° SSW 02:03:06 63° W 02:07:28 10° N
Cosmos 1174 4.2 02:03:09 10° S 02:05:44 27° ESE 02:07:02 20° ENE
Cosmos 1741 Rocket 4.4 02:03:31 10° S 02:08:24 42° ESE 02:13:21 10° NNE
CZ-4C R/B 3.5 02:06:28 11° NNE 02:09:29 36° E 02:12:37 10° SSE
H-2A R/B 3.9 02:10:12 10° ESE 02:13:27 20° ENE 02:16:43 10° NNE
GPS 2-04 Rocket1 2.6 02:11:27 10° W 02:15:22 81° N 02:17:41 24° ENE
Cosmos 2218 Rocket 4.2 02:12:11 10° N 02:18:27 80° W 02:24:46 10° S
Meteor 1-24 Rocket 3.8 02:13:54 10° S 02:19:38 81° W 02:25:12 10° N
deb Chang Zheng 4 3.5 02:17:04 10° SSE 02:21:11 58° ENE 02:25:19 10° N
Nadezhda 3 Rocket 4.0 02:16:55 10° S 02:23:05 58° E 02:29:13 10° NNE
Feng Yun 1-1 Rocket 4.4 02:18:55 10° SE 02:24:08 45° ENE 02:29:17 10° N
CZ-4B R/B 3.2 02:20:26 10° SSE 02:25:45 85° WSW 02:31:12 10° NNW
COSMOS 2406 3.6 02:21:06 10° NNW 02:26:43 66° WSW 02:32:19 10° S
Cosmos 2297 3.6 02:25:14 10° SSW 02:30:55 84° ESE 02:36:22 11° NNE
Cosmos 468 Rocket 4.0 02:27:03 10° N 02:32:14 54° ENE 02:37:19 10° SSE
Chunghua 1 4.4 02:28:29 10° W 02:32:14 84° N 02:33:28 41° E
SeaSat 1 2.8 02:31:06 10° NNE 02:35:59 65° WNW 02:40:50 10° SW
Lacrosse 5 3.8 02:33:38 10° W 02:37:36 23° NW 02:41:36 10° NNE
Cosmos 1850 Rocket 4.0 02:35:54 10° SSW 02:41:13 84° WNW 02:46:05 12° NNE
APEX 4.1 02:37:18 10° NNW 02:42:05 78° WSW 02:47:56 10° SSE
H-2A R/B 4.4 02:45:35 10° SSW 02:49:30 24° W 02:53:30 10° NW
Meteor 2-20 4.4 02:45:04 10° S 02:51:07 63° E 02:57:12 10° NNE
SL-08 RB Rocket 4.3 02:47:37 10° S 02:51:59 56° W 02:56:22 10° NNW
YAOGAN 1 2.4 02:49:29 10° SSE 02:53:47 88° ENE 02:58:07 10° NNW
IRIDIUM 104 4.2 02:49:49 10° S 02:55:01 81° E 03:00:15 10° N
Cosmos 1656 Rocket 4.1 02:51:47 10° S 02:56:27 40° ESE 02:56:27 40° ESE
Cosmos 1943 Rocket 2.9 02:51:51 10° SW 02:57:19 52° WNW 03:02:18 12° N
DNEPR-1 R/B 4.2 02:54:14 10° NNW 02:59:38 76° ENE 03:06:16 10° SSE
ATLAS 2A CENTAUR R/B 3.9 02:51:27 10° WSW 03:02:47 40° S 03:04:11 32° SSE
IRIDIUM 114 4.3 02:58:57 10° S 03:04:10 82° W 03:09:24 10° N
Cosmos 1821 Rocket 4.2 02:57:59 10° N 03:04:23 76° W 03:10:43 10° S
H-2A R/B 3.4 03:08:49 25° S 03:08:49 25° S 03:10:39 10° S
Meteor 1-21 Rocket 4.1 03:02:31 10° S 03:08:09 69° E 03:09:19 53° NE
Okean O Rocket 3.4 03:05:03 10° SSW 03:08:56 31° W 03:12:50 10° NW
Atlas Centaur 2 2.3 03:06:05 10° W 03:11:59 52° SSW 03:12:50 47° SSE
ATLAS 3B R/B 2.5 03:06:24 10° SSW 03:12:50 71° ESE 03:14:16 54° ENE
CZ-4 R/B 1.9 03:09:25 10° S 03:13:10 54° W 03:16:58 10° NNW
Cosmos 2082 Rocket 3.6 03:11:56 10° NW 03:17:05 38° WSW 03:22:14 10° S
Cosmos 1242 Rocket 4.3 03:15:10 10° NNW 03:18:25 32° W 03:21:39 10° SSW
IRS-1C Rocket 4.4 03:13:14 10° SSE 03:19:49 51° N 03:23:45 10° N
CZ-2C R/B 3.3 03:16:36 10° SSW 03:18:34 21° S 03:18:34 21° S
ISS -1.0 03:19:25 10° WNW 03:20:52 16° NW 03:20:52 16° NW
Cosmos 2263 4.3 03:26:25 10° SSW 03:31:27 69° S 03:31:27 69° S
Cosmos 2344 3.8 03:26:25 10° SW 03:34:08 63° WNW 03:37:27 34° N
Cosmos 2369 Rocket 2.8 03:37:40 10° SW 03:43:08 52° WNW 03:43:36 51° NW
H-2A R/B 4.3 03:44:39 10° SSW 03:48:37 31° W 03:52:38 10° NW
CZ-3 R/B 4.4 10:16:52 10° W 11:18:37 69° SSW 11:32:28 10° ESE
Cosmos 1943 Rocket 3.8 11:55:01 29° E 11:55:01 29° E 11:58:29 10° SE
